Theta_e
333 323 319 317 312 312 318 323 331 341 343 340 337 337 339 338 333 334 332 326 321 318 328 337 339 341 342 343 343 343 343 343 343 343 343 343 343 343 343 343 343 343 343 343 342 341 339 337 336 334 333 332 331 330 329 329 329 331 334 336 336 335 330 328 331 328 329 332 334 336 336 337 338 339 339 340 340 340 339 335 335 336 336 338 338
333 323 320 318 314 312 316 324 332 340 343 339 337 337 339 336 333 335 331 325 320 320 331 338 340 342 342 343 343 343 343 343 343 343 343 343 343 343 343 343 343 343 342 342 341 339 335 333 332 331 332 331 330 329 327 325 323 323 324 326 329 331 328 327 332 330 328 328 329 334 336 336 337 339 339 339 339 338 337 335 333 334 334 335 334
328 324 321 319 316 312 315 325 333 339 341 339 337 337 338 334 334 334 329 325 321 323 334 340 341 342 342 342 342 343 343 343 343 343 343 343 343 343 343 343 343 342 342 341 340 336 332 332 333 333 332 330 329 327 325 323 322 319 316 316 319 326 327 327 332 331 331 331 328 330 332 334 336 337 337 334 334 334 333 333 333 333 334 334 332
327 324 324 323 319 315 316 324 332 338 339 338 337 337 336 333 335 334 328 326 323 327 337 341 341 341 342 342 343 343 343 343 343 343 343 343 343 342 343 343 342 341 341 340 338 335 334 336 337 335 332 330 328 325 323 319 316 313 312 314 317 324 326 327 332 333 333 333 331 328 327 330 333 332 329 325 326 328 330 333 334 333 333 333 332
327 323 324 323 322 320 318 323 331 336 337 336 336 336 333 334 336 332 327 326 326 333 340 341 342 342 342 343 343 343 342 343 343 343 343 343 343 343 343 342 341 340 340 339 338 337 338 339 338 335 332 332 330 326 321 316 313 313 315 319 320 322 325 325 330 334 336 335 333 332 328 324 325 325 324 323 324 327 331 333 334 334 333 331 331
327 322 322 321 325 325 320 324 331 334 335 334 335 334 333 335 335 330 326 327 331 338 341 342 342 342 342 343 343 343 343 343 343 343 343 343 343 343 342 341 342 341 340 340 339 338 338 339 337 335 333 334 332 327 319 315 317 320 323 325 324 325 325 326 329 333 336 336 335 336 332 322 318 324 328 330 330 331 333 334 335 335 333 329 330
327 321 321 320 325 326 323 326 330 331 332 332 333 334 335 335 332 328 327 332 338 341 341 342 342 343 343 342 342 342 342 342 342 343 342 343 342 342 341 341 341 340 340 339 339 338 338 338 335 332 333 333 331 325 317 318 325 327 327 328 328 328 328 329 330 332 333 334 336 336 332 321 318 328 332 334 334 334 334 334 334 334 332 328 329
326 321 320 320 324 327 325 327 329 330 331 331 334 335 335 333 329 327 330 337 341 341 342 343 343 343 343 342 342 342 342 341 341 342 342 342 342 342 342 342 341 341 340 340 339 339 338 335 330 329 331 331 329 324 316 318 326 328 329 329 329 330 330 331 332 333 334 334 335 334 331 322 321 331 334 334 334 334 332 331 332 333 332 329 329
327 322 319 320 326 329 326 325 327 329 331 331 333 335 332 330 327 328 334 340 341 342 343 344 344 343 343 342 342 341 342 341 341 342 341 342 342 342 341 341 341 340 338 337 337 335 332 329 328 330 329 329 328 322 316 320 326 328 329 330 331 332 332 332 333 334 333 334 334 332 330 322 324 333 335 334 334 334 333 330 331 332 332 330 331
331 323 320 319 327 330 326 324 324 326 330 331 332 332 330 328 328 331 338 341 342 343 343 344 344 343 343 343 342 341 341 341 341 341 341 341 341 341 340 340 339 338 336 334 333 330 327 327 329 329 328 329 326 319 318 323 327 330 331 332 332 333 333 332 334 334 333 332 331 331 329 321 324 333 334 335 334 333 332 331 332 333 332 332 332
333 326 319 321 330 329 326 325 323 325 327 329 329 329 329 329 330 335 340 342 343 343 343 344 343 343 343 342 341 341 340 340 340 339 338 338 339 339 338 338 337 336 336 332 329 327 326 329 330 329 329 328 322 316 319 325 329 330 331 332 332 333 333 333 333 333 335 333 332 332 329 323 328 333 334 335 334 332 331 333 334 333 333 333 332
336 327 319 326 333 329 327 327 323 323 325 326 327 328 330 332 335 339 342 343 343 344 343 343 343 343 342 341 339 338 337 336 335 334 334 333 334 335 334 334 333 331 328 327 327 326 327 329 330 328 330 327 319 316 321 327 330 331 332 332 332 333 334 334 333 332 335 335 334 333 328 325 330 333 333 333 333 332 333 334 333 333 332 331 331
336 326 321 329 333 330 329 327 325 323 322 325 326 329 334 338 340 342 343 343 343 343 343 343 342 342 340 338 336 334 332 330 327 326 326 326 327 326 325 326 327 325 319 322 326 326 327 329 329 329 329 327 319 316 323 329 331 332 332 332 333 334 334 333 333 334 336 336 334 332 326 323 329 333 334 333 332 332 332 332 332 331 331 331 330
334 325 323 329 334 335 332 326 324 322 323 326 329 334 339 341 342 343 343 343 343 343 343 343 341 340 337 336 334 333 330 327 322 319 318 318 318 317 316 316 318 319 315 319 326 325 327 330 329 329 330 327 319 317 325 330 332 332 332 333 334 334 333 332 333 335 336 335 335 332 324 322 326 329 331 332 332 331 331 331 331 330 329 329 328
332 325 323 330 337 338 335 328 326 328 331 334 336 340 342 342 343 343 343 343 343 343 342 341 340 338 337 336 335 334 331 327 321 318 317 314 312 311 311 311 312 314 313 318 325 326 327 329 330 329 329 328 322 318 325 331 331 332 333 334 334 334 334 334 334 335 337 335 335 333 325 324 326 325 327 329 330 330 330 330 330 330 329 327 326
330 323 323 332 339 339 338 334 333 337 339 341 341 342 342 343 343 343 343 343 343 342 342 340 339 338 337 336 335 334 332 328 321 317 316 312 309 308 308 309 309 310 312 318 325 326 326 329 330 330 329 329 326 320 323 328 329 332 333 334 335 335 334 334 333 335 337 336 335 335 329 329 328 325 326 327 328 329 329 330 330 329 329 327 327
327 323 325 334 339 339 339 338 338 341 342 342 342 342 342 343 343 343 344 343 342 342 341 340 339 338 338 337 335 332 329 327 321 317 315 312 308 308 308 308 308 308 310 319 325 325 326 329 330 330 329 329 328 325 323 323 327 332 333 334 335 335 334 333 332 335 337 336 335 336 333 332 327 324 326 326 328 329 329 330 330 328 327 327 327
328 326 325 332 338 339 339 339 339 341 342 343 343 343 343 342 343 343 343 342 342 341 341 340 339 338 337 335 334 332 330 328 324 320 317 314 310 308 309 308 308 307 309 318 325 325 325 327 329 330 330 329 329 327 325 323 326 331 333 334 334 334 335 334 332 335 337 336 336 336 335 331 325 323 324 325 327 328 328 327 328 329 328 327 326
332 330 328 332 337 338 339 339 340 341 341 341 342 343 343 343 343 343 343 342 342 341 341 340 339 337 336 335 334 332 330 329 326 322 319 316 313 310 308 308 307 307 308 315 323 325 325 326 328 329 329 329 329 328 327 325 327 331 333 334 334 334 335 335 333 335 336 336 335 335 334 330 325 323 324 326 326 327 327 326 326 327 328 327 326
336 335 334 334 336 337 337 339 340 340 340 340 342 343 343 343 343 343 342 342 341 341 340 340 338 337 335 335 334 332 332 331 327 325 323 319 316 315 310 308 308 307 307 313 322 325 325 325 326 329 329 329 329 329 328 327 327 328 331 331 331 332 332 333 335 335 335 336 334 333 333 330 326 324 324 326 327 329 328 327 326 325 327 326 325
339 338 338 336 337 337 335 337 339 340 340 340 342 343 342 342 343 343 342 341 341 340 340 339 338 337 336 336 336 336 337 337 334 333 332 326 321 319 315 310 308 308 309 313 320 324 325 324 324 326 327 328 329 328 329 329 328 326 326 326 325 327 331 331 334 336 335 334 333 332 334 332 329 325 324 326 328 330 329 328 327 326 327 326 327
341 340 339 338 338 337 336 336 338 339 339 340 341 343 342 342 343 343 342 341 341 340 340 339 338 337 336 337 339 340 340 340 339 338 338 333 326 322 320 316 311 309 311 314 319 323 324 324 325 325 326 327 327 328 329 329 328 328 326 326 326 329 334 334 333 336 334 332 333 334 335 333 329 327 325 325 327 329 328 328 328 327 327 327 329
342 341 340 339 337 337 339 336 336 337 337 338 340 341 342 342 342 342 341 341 340 340 339 339 338 336 336 338 340 340 341 340 339 341 340 335 329 323 321 320 317 315 314 313 316 320 322 322 322 322 323 324 324 326 330 331 331 333 332 332 333 331 334 336 333 334 334 332 334 334 334 332 329 328 327 326 327 328 328 328 327 327 327 327 328
342 341 341 339 337 339 339 337 337 336 336 337 338 340 342 341 341 341 341 341 340 339 339 338 336 336 337 338 339 340 341 340 340 342 339 334 331 326 324 325 326 326 323 317 315 318 323 325 322 322 323 324 324 322 326 334 337 338 339 337 336 333 334 337 335 334 334 333 333 333 332 332 331 330 329 328 328 328 328 328 327 328 328 327 327
343 342 341 339 340 341 340 340 340 337 336 336 337 339 340 340 340 340 340 340 340 339 339 339 338 338 338 337 338 340 341 340 338 338 335 333 335 334 332 332 334 333 330 329 327 328 332 334 331 330 330 329 329 326 326 333 337 337 338 337 335 334 334 335 335 335 335 333 332 332 333 333 333 332 330 329 329 328 328 328 327 328 329 328 326
343 343 342 341 341 341 341 341 340 339 337 334 336 339 338 338 338 339 340 340 340 340 340 340 340 340 338 337 338 337 338 337 333 334 336 336 338 338 337 336 337 337 334 334 335 336 336 335 335 335 335 333 332 331 331 333 334 334 335 335 333 332 333 334 334 334 334 333 333 333 334 334 334 334 332 331 330 329 329 329 328 328 328 328 327
344 344 343 343 343 343 342 342 341 340 336 331 333 335 335 336 337 339 340 340 340 340 340 340 340 340 338 337 336 333 336 336 334 336 337 338 339 340 340 339 339 339 337 335 336 338 338 337 337 336 335 334 333 332 332 332 333 333 334 334 332 330 332 334 334 333 333 333 334 334 335 335 336 335 334 332 331 330 329 329 329 328 328 329 329
345 345 345 344 344 343 342 342 342 338 334 334 334 333 334 337 338 337 338 339 339 339 339 338 338 338 337 335 333 333 337 338 337 337 337 338 340 341 341 340 340 339 338 336 337 338 339 339 338 336 336 335 335 335 334 334 333 333 333 333 333 332 332 334 334 333 332 332 333 334 334 335 335 336 335 334 333 332 330 329 330 328 328 330 329
342 344 345 344 344 344 343 343 342 338 336 338 337 334 335 337 337 336 337 338 339 338 337 338 337 336 336 334 333 337 339 339 338 338 337 338 340 341 340 339 339 339 338 338 338 338 338 338 338 337 338 337 337 337 337 336 335 334 334 333 333 332 332 332 332 332 333 333 333 333 334 335 335 335 335 335 335 334 332 330 330 329 328 330 330
339 341 341 341 341 341 342 342 341 340 339 339 337 336 337 336 336 336 336 337 337 337 337 337 336 333 334 334 335 339 340 339 339 339 339 338 339 341 340 340 340 340 341 340 339 338 337 337 337 337 337 338 338 338 337 336 336 336 335 334 334 334 333 333 333 332 332 334 334 334 334 335 335 335 335 335 335 335 334 331 330 330 329 329 329
339 339 338 338 338 339 341 341 341 340 339 339 338 338 338 336 336 336 336 336 336 336 336 335 334 332 333 336 338 339 339 339 340 340 340 339 339 339 339 340 340 340 341 340 338 337 337 338 338 338 338 339 338 338 338 337 337 337 336 335 335 335 335 335 334 332 332 334 334 335 335 335 336 335 335 335 335 335 335 333 332 331 330 329 329
338 337 337 338 338 338 340 340 340 339 338 338 338 337 337 336 336 335 335 336 336 335 334 334 336 336 336 338 339 339 339 340 340 340 339 338 339 339 339 340 340 340 340 340 339 339 339 339 340 340 340 340 339 339 339 339 339 338 338 337 336 336 336 336 335 334 333 334 334 335 336 336 336 336 336 335 335 335 335 335 333 332 332 330 330
337 337 337 338 338 337 338 338 337 336 336 336 336 336 335 335 336 335 336 337 336 335 335 336 338 339 338 339 339 340 340 340 339 339 339 340 340 340 340 340 340 340 341 341 340 341 341 341 341 341 340 340 340 339 339 339 339 338 338 338 338 337 337 337 337 336 335 334 334 335 336 337 337 337 337 336 335 335 334 334 334 333 332 331 330
337 337 337 337 338 337 336 336 336 335 335 334 334 335 335 335 335 336 337 338 336 336 337 338 339 339 340 340 340 340 340 339 339 339 340 340 340 340 341 341 341 341 341 341 341 341 340 340 339 339 339 339 338 338 337 337 337 337 337 337 337 337 337 338 338 337 336 336 335 335 336 337 337 337 337 336 335 335 333 333 333 333 333 332 331
337 337 336 337 337 336 335 336 336 335 334 334 336 337 337 335 336 338 338 338 337 337 339 340 340 340 341 341 341 341 340 340 340 340 340 340 340 340 341 341 341 341 340 341 341 340 339 338 338 337 337 337 337 336 337 337 337 337 337 336 336 336 337 337 337 337 337 337 337 336 337 337 336 336 335 335 335 333 332 332 332 332 332 333 331
337 337 337 337 337 335 335 336 335 336 335 336 338 338 338 337 337 339 339 339 339 339 340 340 340 341 341 341 341 340 340 341 341 341 340 340 340 340 340 341 340 340 340 340 339 338 339 338 337 337 337 337 337 337 337 337 337 337 337 337 337 337 337 337 337 336 337 337 337 337 337 337 336 336 335 334 334 333 332 333 333 331 330 331 331
336 337 337 337 336 335 336 336 336 337 337 337 339 339 339 339 338 339 340 340 340 340 339 339 340 341 340 340 340 340 339 340 340 341 340 340 340 339 340 341 341 340 340 339 338 338 338 337 337 337 337 337 337 337 337 337 337 337 337 337 336 337 336 336 336 336 336 337 337 337 337 337 337 337 336 335 334 333 332 332 333 332 331 329 331
337 337 338 337 336 336 336 337 337 338 338 338 339 339 340 340 339 340 340 339 339 339 339 339 340 340 340 339 339 339 338 339 339 340 340 340 340 339 340 340 340 340 339 339 338 337 337 336 336 336 336 337 337 337 337 337 337 337 336 336 335 336 336 335 335 335 336 336 336 337 337 337 337 337 337 336 335 334 333 332 333 334 333 331 332
337 337 338 337 337 337 337 338 339 339 339 339 339 340 340 340 340 339 339 339 339 338 339 339 339 338 339 339 339 339 338 338 339 339 339 340 340 339 340 340 339 339 338 337 337 336 336 336 336 336 336 336 336 337 337 337 336 336 336 336 335 335 335 335 335 335 335 336 336 337 337 337 337 337 336 336 336 335 333 333 333 334 334 333 333
336 337 338 338 337 337 338 339 340 340 340 340 339 339 340 340 339 338 338 339 338 338 338 338 338 338 339 339 339 338 337 338 339 339 339 339 339 338 338 337 337 337 337 336 336 335 335 335 336 336 336 336 336 336 336 336 335 335 335 335 334 334 334 334 334 335 335 336 336 336 336 336 336 336 336 336 336 335 334 333 333 333 333 333 334
336 337 338 339 338 338 339 340 340 340 340 339 340 339 339 339 339 338 338 338 337 337 337 337 337 338 338 338 338 337 337 337 337 337 338 338 337 336 336 336 335 335 335 335 335 335 334 335 335 335 335 335 336 336 336 335 335 335 334 334 333 333 333 335 335 336 336 335 335 335 335 335 336 336 336 336 336 336 335 334 333 333 332 333 333
337 337 339 339 339 339 339 341 340 340 340 339 339 339 339 339 338 338 337 338 337 336 337 337 336 336 336 336 336 335 335 335 335 336 336 335 335 334 334 334 334 334 334 334 334 334 333 333 333 334 334 334 334 334 335 335 335 335 334 334 335 333 333 335 335 334 333 333 334 335 335 335 335 335 336 336 335 336 335 334 334 333 333 333 333
337 338 339 339 339 339 339 340 340 339 339 339 339 338 339 339 338 337 337 337 336 336 337 336 335 335 334 334 334 333 333 334 334 334 334 334 333 333 333 333 333 333 333 333 332 332 332 331 332 331 331 331 332 333 333 333 334 335 334 335 336 336 336 336 333 332 333 334 334 334 334 334 335 335 336 336 335 334 334 334 334 334 334 334 334
337 337 338 339 339 339 339 339 339 338 338 338 338 338 338 337 336 336 336 336 336 336 336 336 335 333 333 333 333 332 333 332 332 332 332 332 332 332 332 332 330 330 330 330 329 329 329 329 329 329 328 329 330 331 330 330 333 334 333 335 335 336 337 335 332 332 333 334 333 333 333 334 335 336 335 335 334 333 333 333 333 334 334 334 334
336 337 337 338 338 338 338 338 338 337 338 337 337 337 336 336 335 335 335 335 335 335 336 336 334 332 332 332 332 332 331 330 330 330 330 330 330 330 330 329 328 327 327 327 326 326 326 326 327 327 327 327 328 328 327 327 329 329 330 332 334 335 335 333 333 333 332 332 332 332 332 332 334 335 335 334 333 333 333 333 333 333 333 334 334
336 337 337 337 337 337 338 338 337 337 337 337 336 336 335 335 336 335 335 334 333 334 335 335 333 332 331 330 330 330 329 328 328 327 327 327 327 327 327 327 326 325 325 325 325 324 324 324 325 325 325 325 325 325 325 324 325 325 325 327 329 331 331 331 333 333 331 331 331 331 331 330 329 332 334 334 334 334 333 333 333 333 333 334 334
336 336 337 337 337 337 337 337 337 336 336 336 336 335 335 335 336 336 335 334 333 335 335 334 332 331 330 329 328 328 327 327 326 326 325 325 324 324 324 325 325 324 323 323 323 322 322 323 323 323 323 323 323 323 323 322 323 323 322 323 324 325 326 327 329 329 329 329 327 328 329 327 326 328 330 331 333 334 334 334 334 334 334 334 334
336 336 336 336 336 336 337 337 336 335 336 336 336 335 335 335 335 334 334 333 334 335 334 332 331 330 328 327 326 326 326 325 325 324 323 323 322 322 322 322 322 322 321 321 320 320 320 321 322 321 321 321 321 320 320 320 321 321 320 321 321 321 322 323 324 324 326 326 325 325 325 324 324 326 327 326 327 328 329 331 334 334 334 334 334
336 336 336 336 336 336 336 336 336 336 336 335 335 335 334 334 334 333 333 334 334 334 332 330 329 328 327 326 326 325 324 323 322 322 321 321 320 320 320 320 320 319 319 319 319 319 319 319 319 319 319 319 318 318 318 317 317 318 318 319 319 319 320 321 321 321 323 324 324 324 323 323 323 323 323 322 322 321 322 326 331 333 335 335 334
336 336 336 335 335 335 335 335 335 335 335 334 333 333 333 333 333 333 333 334 334 332 331 329 328 327 327 326 325 324 322 321 320 319 319 319 319 319 318 318 318 318 317 317 317 318 318 317 317 317 316 316 316 316 316 315 315 315 316 316 317 318 319 320 319 320 321 321 322 321 321 321 321 321 320 321 321 320 322 325 327 330 332 334 334
336 335 335 335 335 335 334 335 334 334 333 333 333 332 332 333 333 333 334 334 333 331 329 328 327 326 325 324 323 321 320 319 318 318 318 318 318 318 317 316 315 316 316 316 316 317 316 315 315 314 314 315 315 314 315 314 314 314 314 315 315 316 318 319 318 318 318 319 319 318 319 319 319 319 319 320 320 321 323 324 324 326 327 330 332
Wind_Speed
23 24 23 20 18 18 18 18 18 19 18 18 18 19 19 18 17 16 15 14 15 17 16 16 17 17 17 17 17 16 16 16 16 16 16 17 17 17 16 16 16 16 16 16 16 16 16 15 14 14 14 14 13 12 11 10 9 8 9 9 11 12 12 12 13 12 10 10 11 13 14 13 13 12 12 14 15 15 13 13 14 14 13 14 13
25 26 24 21 20 18 18 18 19 20 19 19 19 19 19 19 18 16 15 15 16 17 17 16 16 17 16 17 16 16 16 16 16 16 16 16 16 16 16 16 16 16 16 16 15 15 15 15 14 13 13 12 12 10 9 8 7 7 7 7 10 11 10 11 12 12 12 11 12 13 14 13 12 12 12 13 14 12 11 12 13 13 13 12 12
28 26 24 22 20 19 19 19 20 20 20 19 19 20 20 19 18 16 15 15 16 17 17 16 16 16 16 16 16 16 16 16 16 16 16 16 16 16 16 15 15 15 15 15 15 15 15 14 13 12 12 11 11 10 9 8 7 6 6 8 10 10 8 9 11 11 12 12 13 12 13 13 12 11 10 11 10 10 10 12 13 13 13 12 12
29 27 25 22 20 20 19 20 20 20 20 20 20 20 20 20 18 16 15 16 16 17 17 16 16 16 16 16 16 16 16 16 16 16 16 15 15 15 15 14 14 14 14 14 14 14 14 13 12 11 11 11 12 11 10 9 7 7 10 13 13 10 7 8 10 11 11 12 14 13 11 12 12 10 9 9 9 9 11 12 12 12 11 11 11
30 27 25 23 22 21 20 21 20 21 20 21 21 20 21 20 18 16 15 16 17 18 16 16 16 16 16 16 16 16 16 16 16 16 15 15 14 14 13 13 13 14 14 14 14 14 13 12 11 10 11 11 11 11 11 10 11 13 16 17 14 11 8 6 8 9 9 10 10 12 10 9 10 10 10 11 11 10 11 11 12 11 10 10 11
30 28 26 24 23 22 21 21 21 21 21 21 21 20 21 20 19 17 16 17 18 18 16 16 16 16 16 16 16 16 16 16 16 15 15 15 13 13 13 13 13 13 13 13 13 12 12 11 10 9 10 10 10 11 11 12 15 17 17 16 13 11 9 6 6 6 6 7 5 5 7 7 10 11 12 13 13 11 11 12 12 11 9 10 11
30 28 26 25 24 23 22 22 21 21 21 21 21 21 21 20 19 17 18 19 18 17 17 16 16 16 16 16 16 16 15 16 16 15 15 14 13 12 12 12 12 12 12 11 11 11 11 10 9 9 9 8 9 11 12 15 16 16 15 13 12 10 9 7 5 3 2 2 2 4 4 6 10 12 11 12 12 11 12 11 11 10 9 10 11
30 28 26 25 24 23 23 22 21 21 21 22 21 21 21 20 19 19 20 19 18 17 17 17 16 16 16 16 16 15 15 15 15 15 15 14 12 12 11 11 11 11 10 10 10 10 10 9 9 9 9 9 10 11 12 15 16 15 13 12 10 9 7 6 6 7 6 3 6 9 7 5 11 13 12 11 11 11 11 11 11 10 10 10 11
30 28 26 26 24 23 22 22 21 21 22 22 21 21 21 21 20 21 20 18 18 17 17 17 16 16 16 16 15 15 15 14 14 13 13 13 12 11 10 10 10 9 8 9 9 9 9 9 9 9 9 10 10 11 13 15 15 13 12 11 9 9 9 9 11 13 13 12 13 12 7 6 12 14 12 11 10 11 11 11 11 11 10 10 11
29 27 25 25 25 23 23 22 21 21 22 21 21 20 21 21 22 22 20 18 18 17 17 16 16 16 16 15 15 14 14 13 12 12 11 11 10 9 9 8 8 7 7 8 8 9 10 10 9 9 10 10 11 11 13 14 12 11 10 10 9 10 11 12 12 13 16 16 13 9 6 7 12 12 11 11 10 9 10 11 11 11 11 11 11
27 27 26 25 25 24 24 23 22 22 22 22 21 21 22 22 22 21 19 18 18 17 17 16 16 16 16 15 14 13 12 11 10 9 8 8 8 8 7 6 7 6 6 7 9 10 10 9 9 10 10 11 11 11 13 13 11 10 9 8 8 10 11 12 11 12 15 13 8 7 7 8 11 11 11 10 8 7 9 10 10 10 10 10 9
26 27 26 25 24 24 24 23 23 23 23 24 23 23 23 22 21 20 19 18 18 17 17 16 16 16 15 14 13 12 10 9 7 6 6 6 6 6 5 5 5 5 5 7 9 10 9 9 9 10 10 11 11 12 14 12 10 9 8 7 8 10 11 12 12 13 13 8 5 6 6 8 10 11 10 8 7 7 7 7 7 7 7 7 6
27 27 26 25 25 25 24 24 24 24 25 25 25 24 22 21 20 19 18 18 18 17 17 16 16 15 14 13 12 10 9 7 6 5 5 5 5 4 4 4 4 4 6 8 9 9 9 9 9 10 10 11 12 12 13 12 11 9 8 8 9 10 11 12 12 13 13 7 5 6 6 6 8 9 9 7 6 6 5 5 5 4 5 5 5
29 28 27 27 25 23 22 24 25 25 26 26 25 23 21 20 19 19 18 18 18 17 17 16 15 14 13 12 10 9 8 7 6 5 5 4 4 4 3 4 4 5 7 9 9 9 9 9 9 9 10 10 11 12 13 13 11 9 8 8 9 9 10 12 12 12 12 5 4 5 7 7 6 6 6 6 6 5 5 4 4 5 4 4 6
32 30 29 28 26 22 21 23 26 26 26 25 23 21 21 20 19 19 18 18 18 17 17 15 14 13 12 10 9 8 7 7 6 5 5 4 4 4 4 4 5 7 9 10 10 9 8 9 9 9 9 10 11 11 12 12 11 9 8 8 9 9 9 10 12 11 10 4 3 4 7 8 7 4 3 4 5 5 4 3 4 5 5 5 6
32 30 31 29 26 23 21 22 25 26 25 24 22 21 21 20 20 19 18 18 18 17 16 15 14 12 11 9 8 7 7 6 6 6 5 5 4 4 5 5 6 8 10 11 11 9 8 8 8 8 8 8 9 10 10 11 10 8 8 8 8 8 9 9 11 9 9 5 3 3 5 7 8 5 3 1 2 3 3 3 3 4 4 4 6
33 32 32 30 27 25 23 23 24 24 24 24 22 21 21 20 20 19 18 18 17 17 15 14 13 11 9 8 8 7 7 7 6 6 6 6 5 5 5 6 6 8 10 12 11 10 8 8 7 7 6 6 7 8 8 8 8 8 7 7 7 8 9 8 10 9 8 6 2 2 3 6 8 5 3 1 1 1 2 3 2 2 2 3 4
33 32 33 31 29 26 24 24 24 24 24 24 23 21 20 20 19 19 18 17 17 16 15 14 12 10 9 8 8 8 8 7 6 6 6 6 6 5 5 6 7 8 10 12 11 10 8 7 7 6 5 5 5 6 7 7 8 8 8 7 6 6 7 6 7 7 5 4 1 0 3 6 8 6 4 2 1 2 2 2 2 1 1 1 2
32 32 32 31 29 26 25 24 25 25 24 24 23 21 20 20 19 18 17 17 17 16 14 13 11 10 9 9 8 8 9 8 7 6 6 6 7 6 5 6 7 8 10 11 11 9 7 6 6 5 4 3 3 4 5 7 9 9 8 7 6 5 5 4 5 5 4 5 3 3 3 5 8 7 4 3 1 1 1 1 1 1 2 1 1
31 31 31 30 29 27 26 25 25 25 24 24 23 22 20 19 19 18 17 16 16 15 13 12 11 10 9 8 8 8 9 8 7 6 6 6 7 8 6 5 6 8 9 11 10 8 6 5 4 4 3 2 2 1 2 4 6 7 7 5 4 2 2 2 5 6 5 8 4 3 3 4 8 7 5 4 1 2 1 2 3 0 2 2 1
28 29 29 30 29 28 27 26 25 24 24 24 23 22 20 19 18 18 17 16 15 14 13 12 11 10 8 7 7 8 8 8 7 6 7 7 6 7 6 6 5 7 8 10 9 7 5 4 3 2 1 1 0 1 2 2 3 3 3 1 1 2 2 1 4 7 4 8 5 3 3 4 7 8 6 4 2 2 3 4 5 1 1 1 1
28 27 28 31 30 29 28 26 26 24 24 24 23 22 21 19 19 18 17 16 15 14 13 12 11 9 7 6 6 7 7 6 6 5 6 6 5 5 6 6 5 5 5 7 8 7 5 4 2 2 2 2 3 3 5 5 4 2 2 3 5 4 3 2 4 6 4 7 6 4 4 5 6 7 7 5 2 3 5 5 3 2 1 2 1
28 28 30 31 30 30 28 27 27 25 24 24 23 22 21 20 19 18 17 16 15 14 13 12 10 8 7 6 6 6 7 5 5 3 4 5 5 5 5 6 6 5 4 4 5 5 4 2 3 4 4 5 6 6 6 5 5 4 5 6 8 7 4 3 3 5 6 6 6 6 6 6 6 6 7 6 4 4 6 6 4 2 1 2 3
28 29 32 31 30 30 28 27 27 25 24 23 23 23 20 19 18 18 17 16 15 13 12 11 9 8 8 6 4 4 5 4 3 0 1 3 4 5 5 5 5 6 5 3 3 3 1 2 3 3 4 6 7 8 7 7 7 7 9 11 11 8 5 4 4 6 10 9 9 9 8 7 7 7 8 7 5 5 6 7 5 2 3 2 3
27 29 32 32 31 30 28 27 26 25 24 23 24 23 20 18 17 17 16 15 14 12 11 10 8 8 7 5 3 4 5 3 2 3 3 1 1 3 4 4 4 4 5 4 3 3 3 4 4 3 3 4 5 6 5 6 8 10 12 13 13 9 6 6 6 9 12 11 11 10 9 9 8 8 9 9 7 6 6 6 5 2 5 5 2
26 29 30 31 30 29 29 28 26 24 23 23 24 23 20 18 17 16 15 15 13 12 11 8 7 6 5 4 3 6 6 3 3 2 3 2 3 2 2 2 2 2 4 3 2 3 3 4 7 7 6 6 6 6 5 6 8 11 13 12 13 12 9 7 6 10 12 10 10 9 8 8 8 8 9 9 8 7 7 7 6 3 5 6 3
27 29 29 29 29 30 30 29 26 23 21 23 25 24 22 19 17 15 14 15 13 12 11 9 9 8 7 6 5 8 8 4 4 4 5 6 6 6 4 4 3 2 2 3 4 5 4 5 8 8 7 8 9 10 10 11 12 14 15 13 14 14 13 9 8 11 13 10 9 9 8 8 8 9 9 9 9 8 8 8 7 5 4 7 8
24 27 28 29 29 32 32 28 25 22 22 24 23 23 22 20 17 14 14 15 14 13 12 10 11 10 8 7 5 8 6 4 5 6 6 6 4 4 3 4 4 4 3 4 6 5 4 6 7 8 8 8 9 11 12 13 14 15 16 15 14 14 13 11 11 14 15 13 10 10 10 11 11 10 10 10 9 9 9 9 9 7 3 7 11
15 24 27 28 29 32 31 28 25 22 23 24 22 22 22 21 17 14 13 13 14 13 12 12 11 11 7 5 6 6 4 5 6 6 7 6 5 5 4 2 3 3 3 4 6 6 7 8 9 9 9 9 10 11 13 13 13 12 11 13 15 16 15 14 15 15 16 17 14 12 12 12 13 13 12 12 11 11 10 10 10 9 5 8 12
8 16 19 22 24 28 28 27 25 23 23 23 23 22 21 21 19 15 12 12 14 12 12 13 10 10 9 5 6 6 5 5 6 6 6 6 6 6 5 3 2 2 3 5 7 8 9 9 9 9 10 11 12 12 13 15 13 12 11 12 13 14 15 16 17 14 14 15 15 14 14 14 14 15 15 14 14 13 12 11 11 11 9 10 12
5 9 12 17 19 21 24 25 24 22 21 22 24 22 20 20 19 15 13 11 13 11 12 11 6 6 8 6 6 7 6 5 6 6 5 5 6 6 5 4 3 4 5 7 9 8 7 8 8 9 11 12 13 13 14 15 14 14 14 14 13 13 13 13 14 15 15 15 14 15 16 16 16 17 17 16 16 15 14 13 13 14 12 12 12
8 10 14 18 18 17 19 21 22 20 20 22 24 23 20 17 15 15 12 9 11 12 10 8 5 6 7 7 7 7 6 6 4 3 3 3 4 4 4 3 3 4 5 7 8 7 7 8 8 9 12 12 13 13 14 14 15 15 15 15 14 14 13 11 11 13 15 17 17 18 17 16 17 17 18 17 17 17 17 15 14 15 15 14 11
14 15 17 18 17 14 16 19 19 19 19 20 19 20 18 15 15 15 11 10 11 12 9 8 7 7 7 7 8 6 5 5 3 1 2 3 2 1 2 2 3 5 5 7 7 7 7 8 8 9 10 11 12 13 13 14 15 15 15 15 15 14 14 14 13 12 11 13 16 18 18 16 16 17 18 19 19 19 19 18 16 16 17 17 14
19 19 18 18 17 15 17 18 17 18 18 16 16 17 16 15 16 14 11 11 12 11 10 9 8 7 7 6 6 4 2 2 0 1 3 5 4 2 3 3 3 5 5 6 7 7 7 8 8 9 9 10 12 13 13 13 14 15 15 16 16 15 15 16 16 14 12 11 12 16 19 17 17 18 19 20 20 20 20 20 20 18 18 19 17
24 24 23 20 18 18 18 17 17 19 18 16 16 17 16 16 16 13 12 12 12 12 11 9 8 7 5 4 3 2 0 1 1 1 2 2 3 3 3 2 2 4 4 5 6 6 6 8 9 9 10 11 12 13 12 13 14 14 15 15 15 15 15 16 16 14 14 13 13 14 17 18 19 19 20 22 22 21 20 21 22 21 20 20 20
28 28 26 20 19 21 18 17 19 19 18 17 16 18 18 17 15 13 13 12 10 10 10 9 7 6 4 3 2 1 1 1 1 2 3 3 3 4 3 2 2 3 4 5 6 6 7 8 8 9 10 11 12 13 12 13 14 14 15 15 15 15 16 16 16 15 15 16 17 16 16 18 19 21 21 21 22 22 20 19 21 23 22 21 21
28 28 25 21 22 23 20 19 20 18 18 17 16 18 18 16 16 15 12 10 9 9 10 9 7 6 5 4 3 2 2 2 1 3 4 4 4 3 1 2 2 3 5 6 6 6 8 8 8 8 9 11 12 13 13 14 14 15 15 16 16 16 16 16 16 16 16 17 18 18 19 19 20 20 19 20 21 20 19 19 19 22 24 23 22
29 28 28 26 26 25 22 21 20 19 19 18 17 17 16 15 15 14 12 10 9 10 10 9 8 7 5 5 5 3 2 2 1 1 3 4 4 3 2 2 3 4 6 6 6 7 9 8 9 10 9 10 11 12 13 13 14 16 17 17 16 15 16 17 16 16 16 16 16 16 17 19 20 20 19 19 19 18 18 18 18 20 22 23 22
28 28 28 28 26 24 23 22 20 20 20 19 18 17 15 14 12 11 11 10 10 11 10 9 8 7 6 5 5 5 4 2 2 1 3 5 4 4 4 6 6 6 7 8 8 9 9 9 11 12 11 9 9 11 11 12 15 16 15 16 16 17 16 15 15 15 15 15 15 16 16 18 20 20 19 18 17 17 17 17 17 19 21 22 23
25 27 28 28 28 26 25 22 20 20 20 20 18 17 17 14 13 12 11 10 10 11 10 10 10 8 7 7 7 9 7 4 5 5 6 7 7 7 7 8 8 8 8 9 10 10 10 11 12 13 14 12 11 11 11 13 15 15 16 17 16 15 14 13 13 12 12 13 14 15 16 17 18 18 18 18 17 17 17 18 18 19 21 22 23
23 26 28 28 29 29 27 23 22 21 22 21 18 18 18 17 16 15 13 11 10 11 11 11 12 10 9 11 13 15 13 9 9 8 8 8 9 9 9 9 8 8 9 9 11 12 12 12 12 13 14 14 14 13 14 15 13 14 17 18 16 14 12 9 6 7 11 14 15 15 15 16 17 17 18 18 18 18 18 19 19 20 21 22 22
24 26 27 27 28 29 27 24 23 23 23 22 20 18 17 18 18 16 16 14 12 13 14 13 13 13 13 15 17 17 15 12 11 9 9 9 9 9 10 9 8 8 9 9 10 12 13 14 14 15 14 14 14 14 18 16 12 13 13 12 13 15 13 4 6 15 17 14 13 13 15 16 16 16 16 17 18 19 19 19 19 20 21 21 21
25 24 24 25 27 27 26 25 24 23 23 22 21 20 17 15 16 16 16 15 15 15 17 17 16 16 17 17 17 16 13 12 11 9 9 9 8 9 9 9 9 9 9 9 10 11 13 14 15 17 17 16 14 15 20 19 16 16 11 5 5 9 8 4 13 25 17 11 12 13 15 17 17 16 15 17 18 19 19 19 20 20 20 21 21
23 23 23 24 26 26 26 26 25 23 22 21 21 20 18 15 16 16 15 16 17 17 19 18 18 18 16 14 13 12 11 11 11 9 9 8 8 8 8 9 10 10 10 11 12 13 14 15 15 17 18 18 16 15 18 19 19 17 9 4 3 4 3 5 18 21 12 13 15 13 15 18 17 17 16 16 17 18 19 20 21 21 21 21 21
22 22 22 22 24 24 24 26 26 22 20 21 21 21 20 19 18 17 17 18 19 19 19 18 17 17 14 12 11 10 9 10 10 9 8 8 8 7 7 8 9 10 11 11 13 13 14 15 15 16 17 18 16 15 17 17 18 19 13 6 4 2 2 8 13 11 12 17 14 13 16 18 18 18 17 18 18 18 18 19 21 21 22 22 22
22 22 22 22 22 23 23 24 23 20 19 21 23 23 23 22 21 21 20 20 19 17 18 19 18 16 14 12 11 9 9 9 9 8 8 8 8 7 7 7 8 10 10 11 12 13 13 14 15 16 16 16 16 17 19 18 15 18 19 13 9 7 6 10 8 6 12 13 10 15 17 19 23 21 19 21 22 22 21 20 21 21 22 23 23
23 24 23 21 21 22 22 22 21 20 21 22 23 24 25 24 24 23 22 21 19 17 17 18 18 16 14 12 11 9 8 8 8 7 8 8 8 7 6 6 7 9 10 11 13 14 14 14 14 15 15 15 17 18 20 20 17 17 19 17 14 14 13 11 6 5 9 8 12 18 17 21 26 22 21 22 22 23 23 23 23 23 23 24 24
24 25 24 21 20 23 22 19 19 21 22 22 22 24 25 25 24 23 22 22 22 21 20 19 17 16 16 14 13 11 8 6 5 5 6 7 8 8 8 6 7 9 10 11 13 13 14 14 13 14 14 16 18 19 20 21 20 19 20 19 18 18 17 14 13 11 6 5 12 17 19 27 25 19 21 25 25 25 25 25 25 25 25 24 24
24 25 23 21 21 22 21 18 18 21 21 22 23 23 23 23 24 25 25 24 23 23 22 20 19 18 18 15 13 12 9 6 5 5 6 7 8 10 10 8 8 9 10 11 12 13 15 16 15 15 15 15 17 18 20 21 21 20 21 20 19 19 17 15 18 18 9 5 7 9 18 26 24 22 25 26 28 28 26 25 25 25 26 27 26
22 22 22 21 21 20 20 19 19 20 19 19 20 20 21 22 24 26 26 25 24 24 23 22 21 19 18 15 12 10 9 8 7 7 8 9 9 9 10 9 9 9 11 13 13 15 17 16 15 16 16 17 18 19 20 21 21 21 22 21 20 19 16 13 16 18 12 7 6 6 13 17 18 24 28 28 30 28 24 24 25 24 24 27 29
20 21 22 22 21 19 20 21 20 19 18 17 18 19 20 21 23 25 26 25 25 25 24 22 20 17 16 13 11 11 11 11 10 9 10 10 9 8 9 10 12 13 14 15 15 16 17 16 16 17 18 19 19 19 20 20 20 20 21 20 19 18 16 13 15 17 13 9 8 7 11 15 15 20 26 29 29 26 24 25 25 24 25 26 26
Wind_Direction
146 143 142 142 139 135 133 132 129 129 128 132 132 131 132 130 129 125 120 114 117 120 118 111 106 103 99 98 96 95 94 94 96 97 97 98 99 98 97 96 95 95 94 93 92 90 87 85 83 83 82 80 77 74 74 76 79 84 88 89 86 78 72 74 77 74 78 87 90 92 89 85 82 81 87 89 87 86 81 84 88 83 77 73 71
148 142 142 142 140 135 134 133 130 131 130 134 134 134 133 132 131 126 123 120 122 124 121 115 109 106 103 102 100 99 98 98 97 97 99 99 99 98 98 96 96 95 94 92 91 89 87 86 85 83 79 74 70 68 67 68 71 75 83 89 89 82 76 80 83 79 80 81 83 94 94 88 83 81 85 86 85 85 82 86 86 81 79 77 75
144 142 142 142 141 136 135 134 132 132 132 136 136 136 135 134 133 129 127 125 128 128 124 118 113 110 108 105 103 103 101 101 100 100 101 99 100 99 98 97 97 96 94 93 91 90 90 88 83 78 73 69 67 65 63 62 63 67 82 94 98 97 88 88 90 85 86 85 77 85 99 97 91 85 83 83 80 80 84 88 85 84 84 82 80
143 142 142 142 141 137 136 136 134 134 136 139 138 137 137 136 135 133 130 130 132 130 127 121 117 114 111 109 107 106 104 104 103 103 102 100 101 98 98 97 99 98 95 94 93 93 91 86 79 74 69 67 66 64 61 60 62 77 97 106 110 111 103 94 100 98 98 97 75 67 88 101 94 83 75 71 75 84 87 87 86 88 89 84 81
143 143 143 142 141 139 137 137 136 136 138 141 140 140 139 139 136 136 134 134 135 132 128 124 120 117 114 113 111 110 108 108 106 106 104 101 99 98 101 100 98 98 96 95 94 92 88 83 77 71 66 62 62 61 60 66 78 92 103 108 112 114 114 107 109 110 115 121 90 61 63 87 96 82 75 72 74 84 86 86 86 85 84 85 84
143 143 143 142 142 142 139 139 139 138 139 140 142 143 142 140 138 138 137 136 136 133 130 127 123 119 117 116 114 113 112 112 110 110 106 103 101 101 101 99 99 98 96 94 92 90 87 84 78 69 65 60 56 58 68 85 94 100 106 109 111 113 118 118 116 124 136 145 123 78 57 73 99 89 81 77 73 79 82 83 85 85 81 84 88
143 143 144 144 145 144 142 141 142 141 140 141 142 144 143 141 140 140 139 137 136 134 132 129 124 121 120 118 116 115 114 114 113 110 106 104 101 100 98 97 96 95 94 91 89 86 84 83 80 72 67 64 57 58 80 103 106 107 109 109 110 109 109 107 103 109 132 174 142 130 109 80 99 93 84 83 77 79 82 86 87 87 79 79 88
142 143 146 146 146 146 146 144 144 142 141 142 144 144 143 140 140 141 140 139 136 134 133 128 124 123 121 120 119 117 116 117 116 113 110 108 105 105 105 105 103 102 103 101 98 94 90 86 80 74 70 69 62 64 93 114 114 112 111 108 105 98 91 76 64 55 53 114 142 143 140 102 102 92 83 90 89 82 79 83 84 84 77 74 83
141 144 147 148 148 148 148 147 144 144 143 144 146 144 141 140 142 143 141 139 136 134 132 128 126 124 122 121 120 119 118 119 119 118 120 121 120 121 120 119 120 119 114 108 108 106 98 88 80 76 76 73 64 73 106 122 120 118 113 107 99 85 75 68 68 69 80 114 133 138 131 108 108 96 88 93 97 92 77 73 77 79 76 73 77
142 145 148 149 149 151 150 148 145 146 147 148 147 144 141 142 144 144 142 140 137 134 132 129 128 126 124 122 122 122 121 121 121 123 126 129 129 128 124 120 123 120 108 104 106 106 97 88 83 81 78 71 65 81 115 128 125 124 116 108 96 84 79 78 80 83 101 120 126 122 106 104 108 101 99 97 102 102 83 75 77 80 79 78 78
144 146 149 150 150 153 151 149 147 147 149 149 147 144 143 145 147 144 142 140 137 135 133 131 130 128 125 123 123 122 121 122 121 125 125 128 133 134 130 123 122 118 115 114 110 107 99 91 87 83 77 69 70 91 121 130 129 127 118 109 90 83 79 78 83 94 115 127 122 104 95 101 102 100 103 101 105 104 93 92 89 90 90 88 84
146 147 149 150 149 152 152 150 149 148 149 148 146 145 145 146 146 143 141 140 138 137 135 134 132 130 128 124 122 121 121 120 122 129 134 139 149 156 152 145 138 126 122 124 114 107 101 94 90 85 76 70 76 100 126 132 130 125 114 100 80 74 67 71 85 108 129 136 115 88 86 102 103 103 103 103 105 101 102 107 102 100 98 92 84
146 148 150 148 148 151 151 150 149 147 146 146 145 145 145 144 144 143 142 141 141 140 137 136 134 132 129 124 121 117 113 112 115 123 136 147 157 169 163 157 156 137 127 129 124 113 104 97 91 85 77 73 80 105 128 132 128 120 108 90 73 66 65 74 85 117 142 138 100 74 67 94 105 107 107 107 100 95 95 95 101 97 91 79 65
147 149 149 146 147 149 149 149 148 146 144 144 144 144 144 144 145 145 144 143 143 142 139 138 136 133 128 122 116 110 104 101 102 106 116 129 141 150 152 151 151 144 138 137 134 120 109 99 93 87 79 76 85 109 128 132 129 118 104 83 71 68 72 81 83 120 150 138 93 67 58 71 82 99 108 114 105 100 96 80 79 66 70 74 66
148 147 146 144 145 147 148 148 146 144 142 142 143 144 145 146 146 146 144 145 146 145 142 139 137 132 126 118 110 103 98 94 91 94 101 109 118 124 136 144 147 148 145 144 139 126 113 102 95 91 82 77 86 111 131 135 131 119 103 85 77 72 72 78 79 119 157 149 107 65 56 56 47 54 74 108 114 111 106 86 78 70 67 65 70
148 147 144 144 145 148 147 147 146 144 143 143 144 146 147 148 148 148 147 148 149 146 143 140 137 131 124 115 106 98 91 91 89 92 97 103 106 107 122 134 146 151 151 150 144 133 121 108 100 97 90 83 86 104 131 140 135 123 109 94 84 74 72 77 75 107 163 168 111 74 55 40 23 19 19 68 110 106 109 99 93 92 85 68 74
147 146 144 145 146 148 148 150 149 147 147 146 147 149 150 152 151 150 150 150 150 146 143 140 136 129 120 110 101 94 90 90 88 91 93 96 96 101 115 125 141 150 155 154 148 141 130 117 106 101 99 95 91 97 118 140 145 132 119 104 92 84 74 80 72 83 168 180 96 86 38 18 4 355 348 344 125 133 141 129 115 100 89 85 93
144 146 144 145 146 148 151 152 152 150 150 150 150 151 152 154 154 152 151 152 150 146 143 140 135 125 117 111 105 100 99 95 90 88 85 87 85 90 108 121 133 145 155 157 154 149 139 126 113 106 105 107 105 97 106 125 143 139 131 118 104 100 77 89 77 61 173 190 16 292 357 0 355 344 329 316 238 212 208 187 168 103 80 103 105
144 145 144 145 146 150 154 155 155 153 154 155 153 153 154 155 155 154 152 153 150 147 145 140 133 127 120 114 111 108 105 100 97 90 77 79 82 79 92 113 127 140 153 159 160 155 147 135 118 112 105 113 126 115 115 121 136 136 133 128 109 106 82 95 69 38 203 228 268 258 334 352 353 345 323 318 278 251 238 209 218 155 199 225 117
145 145 143 145 147 152 156 157 157 155 156 156 155 156 157 155 154 155 155 154 151 148 145 140 136 132 126 115 111 111 104 98 95 85 68 63 73 71 73 95 119 136 150 160 164 163 154 143 126 119 106 103 123 138 145 134 142 141 135 133 109 97 41 66 36 25 211 225 252 259 313 341 350 348 332 326 330 319 304 351 353 134 229 282 122
146 146 145 146 149 154 155 157 159 158 158 157 156 155 157 157 155 155 156 155 151 148 145 143 143 139 133 119 116 115 101 92 87 76 61 55 60 60 65 77 103 130 149 159 166 168 161 163 158 146 125 76 342 289 271 231 189 178 168 147 5 312 337 10 12 10 241 231 249 261 290 324 345 348 337 333 342 312 300 334 347 14 22 27 109
149 149 150 151 152 153 155 159 160 161 162 160 158 155 156 158 156 155 156 155 150 149 149 151 151 145 135 123 132 126 110 93 70 65 60 51 47 51 59 63 81 108 141 161 167 175 178 191 204 242 267 287 292 307 300 258 230 243 261 320 335 316 319 339 350 352 288 244 248 258 285 312 338 348 334 329 331 293 302 322 328 338 22 117 164
155 153 155 157 153 154 158 161 160 162 164 162 160 157 156 156 156 157 156 155 154 154 155 157 154 145 134 130 143 135 125 99 45 58 55 37 42 49 53 56 71 80 97 157 175 185 198 226 257 284 290 295 293 300 301 257 235 263 278 298 321 320 296 298 336 324 290 264 258 269 287 305 321 334 327 325 326 298 304 315 324 332 290 145 172
160 156 158 160 155 157 161 159 159 161 163 163 163 159 157 155 156 158 156 156 158 157 157 157 148 135 131 130 141 152 146 117 60 124 337 16 48 52 54 60 65 65 65 93 136 134 82 353 316 311 318 316 309 301 294 273 269 279 279 287 304 313 288 281 313 296 282 273 266 271 278 292 302 311 317 321 322 304 302 308 317 310 268 240 184
160 156 158 159 157 160 160 158 159 159 162 165 163 159 155 156 158 159 159 159 159 157 155 156 149 134 126 119 132 161 161 149 156 219 268 318 72 48 53 69 70 58 50 61 97 92 36 10 346 323 328 330 328 318 299 284 288 287 281 286 296 302 289 284 306 296 284 274 265 268 273 281 290 296 307 316 315 303 298 302 303 271 263 273 212
156 156 158 159 159 159 158 157 157 159 163 164 162 157 155 159 159 159 160 158 159 152 149 157 168 166 147 138 158 171 179 191 200 248 259 243 273 314 15 46 72 49 28 25 18 336 319 335 330 316 311 307 310 311 299 290 285 282 279 284 292 294 289 277 289 297 293 284 268 268 273 279 288 292 300 307 306 301 295 295 302 287 260 269 283
153 156 157 158 159 158 157 156 156 161 161 154 155 156 156 158 155 158 160 155 156 154 156 167 176 182 181 190 196 182 188 214 222 255 248 244 271 279 302 308 293 312 341 330 324 322 309 309 311 309 307 299 302 301 295 293 284 274 267 275 289 293 290 271 259 279 287 289 277 272 278 282 285 286 291 296 297 295 290 290 293 295 264 262 276
152 154 154 156 156 155 155 155 155 156 150 146 150 153 153 156 155 156 157 153 156 163 173 174 170 174 185 200 190 171 194 240 221 228 226 217 233 234 266 298 288 299 321 312 307 314 317 314 309 313 316 308 310 310 306 305 302 289 266 266 282 289 289 276 267 273 275 278 278 278 280 282 279 277 281 284 288 287 284 282 279 286 264 250 264
155 152 153 154 152 153 153 152 153 151 149 150 153 155 156 161 162 157 156 163 170 177 184 177 168 175 188 196 179 182 237 250 225 227 219 208 193 193 212 224 239 282 304 282 283 292 295 299 300 306 314 312 310 312 311 307 310 315 295 282 289 288 284 280 280 277 269 269 272 277 280 282 280 277 277 276 278 279 277 274 270 275 254 243 257
168 148 149 147 145 149 152 150 151 154 155 155 157 160 163 166 165 161 159 168 178 181 178 172 169 180 190 192 193 215 243 241 239 241 232 224 217 215 222 213 219 268 285 283 294 300 295 294 293 297 308 310 308 307 309 305 300 308 312 308 309 305 292 282 281 273 264 266 269 274 276 278 281 281 279 274 274 274 272 269 264 267 254 246 259
141 125 126 133 136 144 152 152 150 155 155 154 158 160 160 161 163 164 161 159 167 163 155 160 164 174 182 188 209 231 237 244 253 249 258 250 233 233 238 238 254 272 286 300 305 302 299 303 304 311 316 315 314 312 313 314 307 302 302 304 309 315 313 298 282 270 264 266 269 274 274 275 278 281 280 277 275 272 271 269 262 264 257 249 257
87 93 108 125 134 143 156 154 147 149 148 148 152 153 150 149 153 160 158 150 157 154 145 152 157 166 182 196 216 236 243 249 257 255 279 274 248 239 236 244 267 281 296 304 305 305 311 317 320 320 320 320 320 317 318 319 318 314 310 307 303 304 313 315 297 281 275 272 272 273 273 274 275 276 279 280 279 274 272 271 264 262 261 257 252
84 97 109 122 133 144 155 148 140 143 145 145 145 148 147 140 145 155 152 144 150 151 145 150 162 174 194 210 219 233 244 241 249 282 19 1 332 276 257 276 300 304 308 312 317 324 323 321 320 315 314 318 316 315 319 320 321 320 317 312 306 298 299 306 306 302 291 281 279 273 270 272 273 273 276 279 280 277 275 273 267 260 259 261 253
104 113 120 128 137 148 151 137 133 142 144 142 138 145 149 142 143 148 145 146 153 154 152 165 180 184 200 216 211 216 233 219 220 19 16 5 360 342 306 301 311 306 306 316 318 319 321 323 324 318 315 317 316 317 320 320 321 320 318 313 308 300 295 297 301 302 299 294 287 271 263 265 270 272 274 276 278 278 278 277 272 264 257 258 254
128 134 136 139 141 146 143 127 130 141 142 143 145 149 151 147 145 146 151 158 162 163 164 176 189 185 190 201 188 188 43 60 45 345 321 331 316 283 269 266 303 315 314 316 316 324 332 328 329 327 323 322 319 320 321 320 319 316 314 311 308 305 301 300 300 300 299 297 291 274 265 267 271 275 278 276 277 278 279 279 276 270 262 258 254
140 140 139 139 136 141 140 131 137 143 144 148 152 152 146 145 152 157 164 166 162 164 164 169 184 187 174 157 139 108 70 70 355 321 298 292 294 280 266 287 343 341 317 312 323 337 332 323 328 330 327 325 320 320 321 319 316 314 313 310 308 305 302 302 300 298 295 291 290 285 280 279 280 284 283 278 278 279 279 279 277 272 267 262 256
143 139 141 143 142 146 147 145 146 148 149 153 155 150 144 151 163 166 164 156 150 154 156 160 172 181 169 143 138 138 156 169 345 334 329 330 317 310 332 333 330 330 320 321 336 344 335 331 335 334 329 324 321 321 322 319 316 313 311 309 306 301 300 301 298 296 292 289 288 286 286 287 288 290 287 284 284 283 281 280 279 275 270 266 259
146 144 149 151 149 152 155 154 153 152 154 158 157 146 141 155 162 159 154 145 141 144 151 160 161 170 169 150 151 145 154 150 95 321 348 360 331 324 15 355 335 342 349 352 358 355 349 346 340 336 331 326 326 325 324 323 319 314 311 312 311 305 301 301 299 297 295 295 295 292 288 288 290 292 292 291 289 285 283 282 280 276 272 268 263
148 148 151 152 152 154 160 161 157 154 155 159 157 145 139 150 151 145 147 143 139 139 146 151 145 155 158 150 146 116 103 98 76 47 26 28 14 11 24 19 12 13 11 9 8 360 356 354 348 347 345 341 340 336 331 327 322 318 316 317 317 313 308 303 299 300 301 303 302 296 291 289 290 292 293 294 291 285 283 281 276 275 274 271 266
152 151 152 154 156 159 164 161 154 154 157 158 157 146 134 139 145 142 144 141 138 136 139 142 140 143 136 128 118 98 86 66 66 69 61 59 53 44 38 33 30 31 26 20 17 11 10 9 3 3 2 360 359 354 344 333 328 327 328 326 322 319 317 310 304 302 306 311 309 301 297 296 295 293 293 292 288 285 283 279 273 272 275 274 269
153 155 156 157 160 164 164 154 151 158 161 158 156 148 139 144 148 143 141 141 137 136 132 133 134 129 118 112 102 89 82 79 82 84 81 76 68 59 51 43 40 41 39 33 29 25 25 23 18 17 15 10 7 5 356 343 337 338 335 332 331 337 335 324 338 342 323 318 315 310 308 306 300 294 292 292 287 284 284 283 278 274 274 274 270
153 159 158 158 160 164 162 152 154 161 160 157 156 155 154 157 151 143 143 141 137 134 126 120 116 107 102 104 99 94 95 95 91 89 83 75 68 61 54 50 48 47 45 39 36 35 32 30 27 24 21 16 10 11 10 2 347 338 333 328 333 345 352 19 24 351 334 326 320 315 316 314 309 302 294 293 293 289 288 289 286 280 276 274 270
153 158 157 156 158 161 161 156 159 162 158 156 158 159 163 161 149 143 145 140 135 130 119 111 103 95 95 100 100 101 104 94 83 79 75 71 66 61 57 56 54 50 49 42 35 34 31 29 29 26 21 16 13 17 19 16 4 348 334 328 333 340 355 28 342 338 345 354 339 326 323 319 315 312 301 296 298 297 295 293 289 285 281 278 273
151 156 155 156 158 162 163 162 164 163 157 156 156 156 158 152 140 140 142 134 130 126 118 107 99 98 99 101 96 91 91 82 75 73 67 64 64 63 61 62 59 51 49 44 36 32 30 26 26 25 22 17 12 14 16 20 23 16 356 319 304 322 355 345 329 333 354 355 344 341 336 329 318 311 306 302 302 300 296 292 290 288 285 282 277
151 156 156 157 160 164 166 165 166 162 155 154 153 150 150 146 139 138 138 129 124 126 122 112 107 107 101 92 84 77 79 77 74 70 61 59 59 58 62 66 62 51 45 44 39 34 31 29 27 25 25 21 15 14 12 17 30 30 22 0 324 329 344 332 325 326 339 341 349 357 351 348 336 319 310 307 304 302 296 291 290 289 287 286 282
151 157 157 159 163 167 168 166 164 160 153 152 152 151 149 150 147 142 137 129 122 121 121 117 113 110 101 94 89 85 85 85 84 76 64 61 54 47 54 61 58 50 43 40 38 33 29 31 31 28 27 24 22 23 17 14 22 24 23 22 9 360 341 333 329 319 333 341 357 357 355 356 350 340 327 315 307 303 298 292 289 290 290 287 284
152 158 159 159 165 169 169 166 162 157 155 154 156 155 152 153 152 146 141 135 124 116 118 120 116 112 108 102 97 94 91 91 91 80 66 60 55 45 43 50 49 43 39 37 36 33 32 33 32 34 35 30 30 31 23 17 18 17 18 20 15 13 7 359 0 338 332 337 343 345 348 345 344 346 345 338 327 317 310 301 293 290 291 289 285
153 157 160 159 162 165 167 168 162 156 156 157 157 156 154 153 150 142 138 134 124 118 121 122 118 116 111 104 98 93 91 92 88 77 63 56 56 44 33 40 43 39 40 42 42 40 41 40 35 36 38 35 36 35 30 27 23 17 17 19 17 17 18 18 16 4 339 316 330 336 338 337 338 340 343 343 339 333 328 318 305 293 290 290 286
153 153 156 157 158 161 166 169 164 158 156 155 155 155 153 152 149 139 130 127 123 123 126 123 120 117 110 105 99 90 85 83 75 67 56 51 58 49 40 48 50 50 49 45 49 49 44 41 36 32 31 34 39 38 35 33 28 23 21 19 15 14 17 20 15 7 354 329 331 333 335 337 337 334 336 336 333 332 332 330 324 309 296 291 286
151 147 149 155 156 160 166 165 161 159 156 153 154 153 150 148 146 137 128 127 129 128 126 123 120 116 108 103 97 91 83 70 65 72 68 63 64 60 55 54 52 58 55 47 55 55 45 41 37 34 37 40 41 40 39 36 32 30 26 21 16 12 11 14 12 7 1 350 340 330 334 339 332 327 331 334 332 334 336 336 337 332 317 304 293
147 144 148 155 156 159 162 157 154 153 148 144 141 139 139 138 136 133 129 131 133 129 123 120 117 109 100 97 95 95 89 77 72 76 76 69 63 65 63 56 57 62 57 52 58 57 51 46 42 44 50 50 44 42 42 39 35 34 31 28 22 15 11 11 8 5 2 353 341 332 332 333 323 318 326 331 332 336 338 336 342 349 347 334 319